TimeAKDT,TemperatureF,Dew PointF,Humidity,Sea Level PressureIn,VisibilityMPH,Wind Direction,Wind SpeedMPH,Gust SpeedMPH,PrecipitationIn,Events,Conditions,WindDirDegrees,DateUTC
12:16 AM,23.0,21.2,93,29.54,3.0,East,6.9,-,N/A,,Overcast,90,2012-10-17 08:16:00
12:36 AM,23.0,21.2,93,29.55,2.0,ENE,6.9,-,N/A,,Overcast,70,2012-10-17 08:36:00
12:56 AM,23.0,21.2,93,29.55,1.5,NE,6.9,-,N/A,,Overcast,50,2012-10-17 08:56:00
1:16 AM,23.0,21.2,93,29.56,2.0,NE,5.8,-,N/A,,Overcast,40,2012-10-17 09:16:00
1:36 AM,23.0,21.2,93,29.56,1.8,NE,6.9,-,N/A,,Overcast,40,2012-10-17 09:36:00
1:56 AM,23.0,21.2,93,29.57,2.0,NNE,6.9,-,N/A,,Overcast,30,2012-10-17 09:56:00
2:16 AM,23.0,21.2,93,29.57,3.0,NNE,8.1,-,N/A,,Overcast,20,2012-10-17 10:16:00
2:36 AM,23.0,21.2,93,29.58,3.0,NNE,6.9,-,N/A,,Overcast,30,2012-10-17 10:36:00
2:56 AM,23.0,21.2,93,29.59,3.0,NNE,5.8,-,N/A,,Overcast,20,2012-10-17 10:56:00
3:16 AM,23.0,21.2,93,29.59,2.5,NNE,5.8,-,N/A,,Overcast,20,2012-10-17 11:16:00
3:36 AM,23.0,21.2,93,29.60,4.0,NNE,5.8,-,N/A,,Overcast,30,2012-10-17 11:36:00
3:56 AM,23.0,21.2,93,29.60,3.0,NNE,5.8,-,N/A,,Overcast,30,2012-10-17 11:56:00
4:16 AM,23.0,21.2,93,29.61,6.0,NE,5.8,-,N/A,,Overcast,50,2012-10-17 12:16:00
4:36 AM,23.0,21.2,93,29.61,10.0,ENE,5.8,-,N/A,,Overcast,70,2012-10-17 12:36:00
4:56 AM,23.0,21.2,93,29.62,5.0,NNE,3.5,-,N/A,,Overcast,30,2012-10-17 12:56:00
5:16 AM,23.0,21.2,93,29.62,4.0,East,3.5,-,N/A,,Overcast,80,2012-10-17 13:16:00
5:36 AM,23.0,21.2,93,29.62,5.0,East,5.8,-,N/A,,Overcast,80,2012-10-17 13:36:00
5:56 AM,23.0,21.2,93,29.63,5.0,East,4.6,-,N/A,,Overcast,80,2012-10-17 13:56:00
6:16 AM,23.0,21.2,93,29.63,5.0,ENE,5.8,-,N/A,,Mostly Cloudy,70,2012-10-17 14:16:00
6:36 AM,23.0,21.2,93,29.63,10.0,East,4.6,-,N/A,,Overcast,90,2012-10-17 14:36:00
6:56 AM,23.0,21.2,93,29.63,5.0,East,5.8,-,N/A,,Overcast,80,2012-10-17 14:56:00
8:16 AM,21.2,19.4,93,29.66,3.0,ENE,4.6,-,N/A,,Overcast,60,2012-10-17 16:16:00
9:16 AM,21.2,19.4,93,29.67,10.0,East,5.8,-,N/A,,Overcast,90,2012-10-17 17:16:00
9:36 AM,21.2,19.4,93,29.68,5.0,East,3.5,-,N/A,,Overcast,80,2012-10-17 17:36:00
9:56 AM,21.2,19.4,93,29.68,7.0,East,3.5,-,N/A,,Overcast,80,2012-10-17 17:56:00
10:16 AM,21.2,19.4,93,29.69,7.0,Calm,Calm,-,N/A,,Overcast,0,2012-10-17 18:16:00
10:36 AM,21.2,19.4,93,29.69,6.0,East,4.6,-,N/A,,Mostly Cloudy,80,2012-10-17 18:36:00
10:56 AM,21.2,19.4,93,29.69,10.0,East,5.8,-,N/A,,Mostly Cloudy,90,2012-10-17 18:56:00
11:16 AM,21.2,19.4,93,29.70,10.0,East,4.6,-,N/A,,Overcast,80,2012-10-17 19:16:00
11:36 AM,21.2,19.4,93,29.71,6.0,East,3.5,-,N/A,,Overcast,80,2012-10-17 19:36:00
11:56 AM,21.2,19.4,93,29.71,5.0,ENE,4.6,-,N/A,,Overcast,70,2012-10-17 19:56:00
12:16 PM,23.0,19.4,86,29.71,2.5,East,3.5,-,N/A,,Overcast,80,2012-10-17 20:16:00
12:36 PM,23.0,19.4,86,29.71,1.8,East,3.5,-,N/A,,Overcast,80,2012-10-17 20:36:00
12:56 PM,23.0,21.2,93,29.72,3.0,East,4.6,-,N/A,,Overcast,80,2012-10-17 20:56:00
1:16 PM,23.0,19.4,86,29.72,6.0,ENE,4.6,-,N/A,,Overcast,70,2012-10-17 21:16:00
2:16 PM,24.8,19.4,80,29.73,7.0,NE,3.5,-,N/A,,Mostly Cloudy,50,2012-10-17 22:16:00
2:36 PM,24.8,19.4,80,29.73,5.0,ENE,3.5,-,N/A,,Mostly Cloudy,70,2012-10-17 22:36:00
2:56 PM,24.8,19.4,80,29.73,9.0,East,3.5,-,N/A,,Overcast,100,2012-10-17 22:56:00
3:16 PM,24.8,19.4,80,29.73,10.0,Calm,Calm,-,N/A,,Overcast,0,2012-10-17 23:16:00
3:36 PM,24.8,19.4,80,29.73,10.0,Calm,Calm,-,N/A,,Overcast,0,2012-10-17 23:36:00
3:56 PM,24.8,19.4,80,29.73,9.0,Calm,Calm,-,N/A,,Overcast,0,2012-10-17 23:56:00
4:16 PM,24.8,19.4,80,29.73,8.0,Calm,Calm,-,N/A,,Overcast,0,2012-10-18 00:16:00
4:36 PM,24.8,19.4,80,29.73,10.0,Calm,Calm,-,N/A,,Overcast,0,2012-10-18 00:36:00
4:56 PM,24.8,19.4,80,29.73,10.0,Calm,Calm,-,N/A,,Overcast,0,2012-10-18 00:56:00
5:16 PM,24.8,19.4,80,29.73,10.0,Calm,Calm,-,N/A,,Overcast,0,2012-10-18 01:16:00
5:36 PM,24.8,19.4,80,29.73,10.0,Calm,Calm,-,N/A,,Overcast,0,2012-10-18 01:36:00
5:56 PM,24.8,19.4,80,29.73,10.0,Calm,Calm,-,N/A,,Overcast,0,2012-10-18 01:56:00
6:16 PM,23.0,21.2,93,29.73,10.0,Calm,Calm,-,N/A,,Overcast,0,2012-10-18 02:16:00
6:36 PM,23.0,21.2,93,29.73,10.0,Calm,Calm,-,N/A,,Overcast,0,2012-10-18 02:36:00
6:56 PM,23.0,21.2,93,29.73,10.0,Calm,Calm,-,N/A,,Overcast,0,2012-10-18 02:56:00
7:16 PM,23.0,19.4,86,29.73,10.0,Calm,Calm,-,N/A,,Overcast,0,2012-10-18 03:16:00
7:36 PM,23.0,19.4,86,29.73,10.0,Calm,Calm,-,N/A,,Overcast,0,2012-10-18 03:36:00
7:56 PM,21.2,19.4,93,29.73,10.0,Calm,Calm,-,N/A,,Overcast,0,2012-10-18 03:56:00
8:16 PM,21.2,19.4,93,29.73,10.0,Calm,Calm,-,N/A,,Overcast,0,2012-10-18 04:16:00
8:36 PM,21.2,17.6,86,29.73,10.0,Calm,Calm,-,N/A,,Overcast,0,2012-10-18 04:36:00
8:56 PM,21.2,17.6,86,29.74,10.0,Calm,Calm,-,N/A,,Overcast,0,2012-10-18 04:56:00
9:16 PM,21.2,19.4,93,29.74,10.0,ENE,3.5,-,N/A,,Overcast,60,2012-10-18 05:16:00
9:36 PM,21.2,17.6,86,29.75,10.0,ENE,3.5,-,N/A,,Overcast,70,2012-10-18 05:36:00
9:56 PM,21.2,17.6,86,29.75,10.0,ENE,4.6,-,N/A,,Overcast,60,2012-10-18 05:56:00
10:16 PM,21.2,17.6,86,29.75,10.0,ENE,3.5,-,N/A,,Overcast,70,2012-10-18 06:16:00
10:36 PM,21.2,17.6,86,29.75,10.0,NE,4.6,-,N/A,,Overcast,50,2012-10-18 06:36:00
10:56 PM,21.2,17.6,86,29.75,10.0,NNE,3.5,-,N/A,,Overcast,30,2012-10-18 06:56:00
11:16 PM,21.2,17.6,86,29.76,10.0,NNE,3.5,-,N/A,,Overcast,20,2012-10-18 07:16:00
11:36 PM,21.2,17.6,86,29.76,10.0,Calm,Calm,-,N/A,,Overcast,0,2012-10-18 07:36:00
11:56 PM,19.4,15.8,86,29.76,10.0,Calm,Calm,-,N/A,,Overcast,0,2012-10-18 07:56:00